[[{"header":{"parameterUnit":"m.s-1","parameterCategory":1,"la1":30.2991,"la2":30.254,"lo1":-89.0895,"lo2":-89.0444,"dy":0.0017,"dx":0.0017,"nx":28,"ny":28,"refTime":"2024-06-10T03:00:00:Z","depth":0,"parameterNumber":2,"parameterNumberName":"U-component_of_WINDS"},"data":[0,0,0,0,0,0,0,0,0,0,0,0,0,0,0,0,0,0,0,0,0,0,0,0,0,0,0,0,0,0,0,0,0,0,0,0,0,0,0,0,0,0,0,0,0,0,0,0,0,0,0,0,0,0,0,0,0,0,1.1119,1.1122,0,1.1405,1.1408,1.1411,1.1507,1.1505,1.1504,1.1503,1.1811,1.182,1.183,0,0,0,0,0,0,0,0,0,0,0,0,0,1.0669,1.0677,1.1119,1.1123,1.1126,1.1404,1.1408,1.1412,1.1507,1.1505,1.1504,1.1502,1.1808,1.1819,1.183,0,0,0,0,0,0,0,0,0,0,0,0,0,1.0901,1.068,1.1119,1.1207,1.1217,1.1403,1.1408,1.1413,1.1507,1.1505,1.1503,1.1502,1.1804,1.1818,1.1832,1.1956,0,0,1.1875,1.1881,0,0,0,0,0,0,0,0,1.0888,1.0918,1.119,1.1201,1.1213,1.1418,1.1363,1.1596,1.1508,1.1398,1.1503,1.1501,1.1683,1.1707,1.1765,1.197,1.1984,1.1876,1.1885,1.1891,1.1895,0,0,0,0,0,0,0,1.0872,1.0906,1.1233,1.1194,1.1208,1.1236,1.1267,1.1407,1.1548,1.1407,1.1415,1.1446,1.1689,1.1751,1.1773,1.1988,1.1876,1.1888,1.1897,1.1902,1.2309,1.2311,0,0,0,0,0,0,1.0839,1.0892,1.1224,1.1241,1.1042,1.1246,1.128,1.1354,1.1546,1.1574,1.1447,1.145,1.1728,1.1756,1.1784,1.1942,1.1891,1.1904,1.1912,1.2307,1.231,1.2312,0,0,0,0,0,0,1.0829,1.0867,1.1212,1.1069,1.1114,1.1255,1.1338,1.1361,1.1423,1.1577,1.1604,1.1484,1.1728,1.1764,1.1911,1.1954,1.191,1.1923,1.2304,1.2308,1.2311,1.2258,0,0,0,0,0,0,1.0815,1.0863,1.0909,1.1069,1.1122,1.133,1.134,1.1368,1.1445,1.1451,1.1619,1.1645,1.1729,1.189,1.1925,1.1972,1.1934,1.2301,1.2306,1.231,1.2256,1.2259,1.2261,0,0,0,0,0,1.0799,1.0887,1.0911,1.095,1.1181,1.1333,1.1364,1.1454,1.1448,1.1497,1.1595,1.1639,1.1942,1.1904,1.1945,1.1997,1.2299,1.2304,1.2309,1.2255,1.2258,1.2261,0,0,0,0,0,0,1.0735,1.0909,1.0938,1.1079,1.1189,1.1348,1.1413,1.1455,1.1574,1.1575,1.1687,1.1724,1.1862,1.1945,1.1898,1.2126,1.2123,1.2137,1.2068,1.2072,1.2075,1.2054,1.1946,0,0,0,0,0,1.0736,1.0839,1.0988,1.1099,1.1152,1.1272,1.1342,1.1401,1.1523,1.1572,1.1681,1.1801,1.1923,1.2002,1.2123,1.2267,1.2306,1.2323,1.2325,1.2327,1.2339,1.2421,1.243,1.233,1.233,1.233,0,0,1.0742,1.085,1.091,1.1088,1.1181,1.1289,1.1312,1.1427,1.151,1.1591,1.1735,1.1818,1.196,1.2105,1.2175,1.2178,1.2374,1.2333,1.2333,1.2345,1.2427,1.2437,1.2445,1.2333,1.2333,1.2332,0,0,1.0809,1.0899,1.1,1.109,1.1228,1.1306,1.133,1.1482,1.1539,1.1683,1.1746,1.1848,1.2057,1.2154,1.2231,1.2329,1.2375,1.2366,1.238,1.2459,1.2467,1.2474,1.2511,1.2522,1.2376,1.2376,1.2376,0,1.0801,1.0962,1.1049,1.1158,1.1236,1.1307,1.1412,1.1497,1.1669,1.1723,1.1722,1.1982,1.2083,1.2252,1.2274,1.2334,1.2368,1.2349,1.2457,1.2466,1.2475,1.2511,1.2524,1.2374,1.2374,1.2374,1.2375,0,1.0945,1.1056,1.1122,1.1279,1.1363,1.1471,1.1577,1.1653,1.1703,1.1783,1.193,1.2052,1.2198,1.2242,1.2296,1.2419,1.2416,1.2434,1.2434,1.2481,1.2516,1.2531,1.2371,1.2372,1.2373,1.2373,0,0,1.0985,1.1182,1.1206,1.1277,1.1431,1.1521,1.1632,1.1768,1.1832,1.1947,1.2045,1.2217,1.2233,1.2321,1.2386,1.2454,1.2524,1.2465,1.247,1.2473,1.2669,1.2655,1.2669,1.2553,1.2556,1.2559,1.2657,0,1.1072,1.1267,1.1346,1.1506,1.161,1.1677,1.1774,1.1881,1.1957,1.2061,1.2148,1.2267,1.228,1.2333,1.2403,1.25,1.2566,1.2494,1.265,1.2654,1.2614,1.2688,1.2675,1.2762,1.2671,1.2674,1.2676,0,1.1202,1.131,1.1478,1.1616,1.1663,1.1748,1.1879,1.1975,1.2098,1.215,1.2243,1.2303,1.2425,1.2413,1.2584,1.2534,1.2602,1.2659,1.2664,1.2685,1.267,1.2712,1.2792,1.2805,1.2698,1.2696,1.2695,0,1.1214,1.1403,1.1528,1.1586,1.1751,1.1809,1.1881,1.2002,1.2078,1.2194,1.2245,1.2375,1.2447,1.2548,1.2643,1.2625,1.2806,1.2802,1.2855,1.2852,1.2893,1.289,1.2986,1.2932,1.2932,1.2932,1.2931,0,1.1305,1.1406,1.1535,1.1612,1.1727,1.1818,1.1931,1.2009,1.2114,1.2211,1.2278,1.2368,1.2485,1.2591,1.2666,1.2797,1.2829,1.2877,1.2896,1.2872,1.2866,1.2921,1.2918,1.2935,1.2935,1.2934,1.2933,0,1.1341,1.143,1.1571,1.1712,1.175,1.1829,1.1952,1.2032,1.2108,1.2229,1.2263,1.2387,1.2514,1.2616,1.2786,1.2836,1.2973,1.2994,1.293,1.2941,1.2988,1.2983,1.3126,1.315,1.3076,1.3077,1.3077,0,1.1394,1.1472,1.1619,1.1684,1.1754,1.1861,1.1936,1.2029,1.2106,1.225,1.2312,1.2443,1.2552,1.2754,1.2862,1.2991,1.3017,1.3058,1.3038,1.301,1.302,1.3015,1.3024,1.3061,1.3061,1.3062,1.3062,0,1.1479,1.1518,1.1622,1.1741,1.1828,1.1928,1.203,1.2081,1.2193,1.2277,1.2404,1.2488,1.2656,1.2787,1.2926,1.3006,1.3054,1.3066,1.3086,1.3064,1.3024,1.3047,1.2938,1.3064,1.3064,1.3063,1.3063,1.3063,1.1527,1.1598,1.1711,1.1825,1.1909,1.2002,1.2082,1.2166,1.2272,1.2412,1.2461,1.2592,1.2713,1.2904,1.2984,1.3091,1.3096,1.3124,1.3132,1.3138,1.3135,1.3003,1.3117,1.3117,1.3117,1.3117,1.3117,0,1.1617,1.1691,1.1794,1.193,1.2019,1.2048,1.2162,1.2236,1.2349,1.2455,1.2559,1.2705,1.2831,1.2945,1.3077,1.3141,1.3166,1.3173,1.3171,1.3189,1.3123,1.3093,1.315,1.315,1.315,1.315,1.315,1.315,1.1674,1.1796,1.1848,1.2013,1.2089,1.2213,1.2275,1.2362,1.2446,1.2604,1.2706,1.2777,1.2888,1.3027,1.3145,1.3176,1.3222,1.3223,1.326,1.3198,1.3193,1.3189,1.3162,1.3232,1.3232,1.3318,1.3318,1.3319]},{"header":{"parameterUnit":"m.s-1","parameterCategory":1,"la1":30.2991,"la2":30.254,"lo1":-89.0895,"lo2":-89.0444,"dy":0.0017,"dx":0.0017,"nx":28,"ny":28,"refTime":"2024-06-10T03:00:00:Z","depth":0,"parameterNumber":3,"parameterNumberName":"V-component_of_WINDS"},"data":[0,0,0,0,0,0,0,0,0,0,0,0,0,0,0,0,0,0,0,0,0,0,0,0,0,0,0,0,0,0,0,0,0,0,0,0,0,0,0,0,0,0,0,0,0,0,0,0,0,0,0,0,0,0,0,0,0,0,0.1248,0.1249,0,0.1329,0.133,0.1331,0.126,0.1257,0.1254,0.1251,0.1341,0.1346,0.1351,0,0,0,0,0,0,0,0,0,0,0,0,0,0.1035,0.1039,0.1248,0.1249,0.125,0.1329,0.133,0.1331,0.126,0.1257,0.1253,0.125,0.1339,0.1345,0.1352,0,0,0,0,0,0,0,0,0,0,0,0,0,0.1123,0.104,0.1248,0.1224,0.1223,0.1329,0.133,0.1332,0.1261,0.1257,0.1252,0.1248,0.1337,0.1345,0.1352,0.1488,0,0,0.1376,0.1379,0,0,0,0,0,0,0,0,0.1118,0.1131,0.1227,0.1226,0.1225,0.128,0.1288,0.1384,0.1262,0.1247,0.1251,0.1246,0.1325,0.1333,0.1358,0.1493,0.1496,0.1377,0.1381,0.1385,0.1387,0,0,0,0,0,0,0,0.1112,0.1127,0.128,0.1228,0.1227,0.121,0.1218,0.1306,0.131,0.1248,0.1243,0.1253,0.1323,0.1351,0.136,0.1498,0.1376,0.1383,0.1388,0.1391,0.1745,0.175,0,0,0,0,0,0,0.1108,0.1122,0.1278,0.1283,0.1159,0.1218,0.1226,0.1267,0.1309,0.1311,0.1257,0.1249,0.134,0.1351,0.1363,0.1525,0.1385,0.1392,0.1396,0.1741,0.1746,0.1752,0,0,0,0,0,0,0.1103,0.1122,0.1275,0.1201,0.1219,0.1226,0.1272,0.1271,0.1298,0.1315,0.1316,0.1284,0.1337,0.1352,0.1457,0.1527,0.1395,0.1402,0.1735,0.1742,0.1749,0.1851,0,0,0,0,0,0,0.1098,0.1121,0.1173,0.1203,0.1223,0.1367,0.1276,0.1275,0.1311,0.1302,0.1341,0.1344,0.1335,0.1446,0.1464,0.1536,0.1408,0.1729,0.1738,0.1747,0.1842,0.1861,0.1877,0,0,0,0,0,0.109,0.12,0.1176,0.1195,0.1288,0.1371,0.1383,0.1369,0.1317,0.1369,0.1379,0.1342,0.1515,0.1457,0.1478,0.1552,0.1724,0.1736,0.1746,0.1834,0.1857,0.1877,0,0,0,0,0,0,0.1182,0.1204,0.1177,0.13,0.1334,0.1359,0.1426,0.1395,0.1446,0.1436,0.1417,0.1427,0.1538,0.1554,0.1489,0.1684,0.1611,0.1627,0.1671,0.1694,0.1711,0.1708,0.1415,0,0,0,0,0,0.1216,0.128,0.1296,0.1403,0.1421,0.142,0.1456,0.1441,0.1476,0.1491,0.1509,0.1547,0.1609,0.1651,0.1709,0.1841,0.1849,0.1902,0.192,0.1934,0.195,0.2021,0.2045,0.1787,0.1787,0.1787,0,0,0.1289,0.1308,0.1351,0.1422,0.1447,0.1515,0.1433,0.151,0.1561,0.1504,0.1604,0.1617,0.1657,0.1776,0.1829,0.1794,0.2021,0.1948,0.1959,0.1967,0.2034,0.2059,0.208,0.1794,0.1793,0.1792,0,0,0.1456,0.1476,0.1568,0.1592,0.1629,0.1626,0.1648,0.1676,0.1683,0.1781,0.174,0.1799,0.1907,0.1938,0.1967,0.2138,0.2107,0.2157,0.2254,0.2323,0.2344,0.2362,0.2426,0.2448,0.2171,0.2172,0.2172,0,0.1543,0.1643,0.1619,0.1698,0.173,0.1676,0.1769,0.1794,0.185,0.1874,0.1831,0.1963,0.1986,0.2111,0.2153,0.2177,0.2202,0.2157,0.2342,0.236,0.2376,0.2437,0.2461,0.2178,0.2177,0.2177,0.2176,0,0.1749,0.1818,0.1887,0.1939,0.1978,0.2063,0.2052,0.2095,0.2074,0.2076,0.2177,0.2201,0.2263,0.229,0.2273,0.2412,0.2389,0.2344,0.2272,0.2408,0.2465,0.2487,0.2187,0.2185,0.2183,0.2181,0,0,0.1985,0.2016,0.2043,0.2065,0.2098,0.2152,0.2233,0.229,0.2329,0.2365,0.2435,0.2524,0.2481,0.2515,0.2498,0.2558,0.2695,0.2506,0.2507,0.2544,0.2852,0.289,0.2917,0.267,0.2675,0.2678,0.285,0,0.2157,0.2298,0.2275,0.2412,0.2477,0.2423,0.2493,0.2522,0.2524,0.2579,0.2581,0.2646,0.2583,0.2603,0.2659,0.2667,0.2757,0.2653,0.2738,0.2742,0.2736,0.2946,0.2987,0.3149,0.2872,0.2875,0.2878,0,0.2378,0.242,0.2563,0.2584,0.261,0.2674,0.2724,0.2776,0.2806,0.2803,0.2837,0.2808,0.289,0.2809,0.2922,0.2852,0.2884,0.2892,0.2897,0.291,0.2823,0.297,0.32,0.3226,0.2912,0.291,0.2907,0,0.2541,0.2632,0.273,0.2749,0.2775,0.2821,0.2834,0.2859,0.2894,0.2936,0.2959,0.3011,0.3041,0.3082,0.3068,0.3011,0.3184,0.3103,0.3187,0.3188,0.3233,0.3231,0.3477,0.3244,0.3243,0.3243,0.3242,0,0.2738,0.2829,0.2803,0.2864,0.2962,0.2933,0.3033,0.3039,0.3061,0.3122,0.3076,0.3135,0.311,0.3167,0.3156,0.3252,0.3265,0.3266,0.3264,0.3274,0.3275,0.33,0.3291,0.3249,0.3248,0.3247,0.3246,0,0.294,0.2926,0.3029,0.3041,0.3047,0.312,0.3131,0.3188,0.3183,0.3261,0.3277,0.3271,0.3336,0.3323,0.3394,0.3386,0.3508,0.3489,0.3499,0.3496,0.3582,0.3576,0.3858,0.3894,0.3633,0.3635,0.3637,0,0.307,0.3138,0.3157,0.3193,0.3209,0.3268,0.3302,0.3274,0.3312,0.3348,0.3401,0.346,0.3507,0.3611,0.3614,0.3668,0.3653,0.3747,0.3661,0.3669,0.3659,0.3658,0.3665,0.3767,0.377,0.3772,0.3774,0,0.3304,0.3292,0.3342,0.3389,0.343,0.3466,0.3498,0.3531,0.3505,0.3549,0.3613,0.3648,0.3718,0.3779,0.3827,0.3841,0.3805,0.3799,0.3822,0.3838,0.3842,0.3845,0.3551,0.3795,0.3793,0.3792,0.379,0.379,0.3477,0.3534,0.3556,0.3613,0.3632,0.3662,0.3716,0.3715,0.3767,0.3821,0.38,0.3873,0.3898,0.3959,0.3977,0.4034,0.4,0.4032,0.4042,0.4052,0.4064,0.3827,0.4042,0.4042,0.4041,0.4041,0.404,0,0.3712,0.3721,0.3773,0.3817,0.3862,0.3817,0.3848,0.389,0.3954,0.3978,0.4023,0.4095,0.4151,0.4156,0.4209,0.4254,0.4238,0.4269,0.4269,0.4273,0.409,0.4067,0.4281,0.4281,0.4281,0.428,0.428,0.428,0.384,0.3935,0.3925,0.4029,0.4037,0.4107,0.4129,0.4156,0.4175,0.4257,0.4303,0.4303,0.432,0.4373,0.4422,0.4422,0.4446,0.4484,0.4478,0.4309,0.4286,0.4263,0.4242,0.4488,0.4489,0.4657,0.4658,0.4659]}]]